[Iaude] MPEC A59: 2024 AD1 [a=1.34,e=0.65,i=14.0,H=21.1]
    mpec at marsden.cfa.harvard.edu 
    mpec at marsden.cfa.harvard.edu
       
    Sat Jan  6 18:08:03 EST 2024
    
    
  
M.P.E.C. 2024-A59                               Issued 2024 January 6, 23:06 UT
     The Minor Planet Electronic Circulars contain information on unusual
         minor planets, routine data on comets and natural satellites,
         and occasional editorial announcements.  They are published
    on behalf of Division F of the International Astronomical Union by the
          Minor Planet Center, Smithsonian Astrophysical Observatory,
                          Cambridge, MA 02138, U.S.A.
			  
             Prepared using the Tamkin Foundation Computer Network
                              MPC at CFA.HARVARD.EDU
            URL https://www.minorplanetcenter.net/    ISSN 1523-6714
                                    2024 AD1                                    
Observations:
     K24A01D* C2024 01 03.32099904 38 10.584-14 37 59.51         20.85wXEA059F51
     K24A01D  C2024 01 03.33300504 38 10.665-14 36 52.36         20.33wXEA059F51
     K24A01D  C2024 01 03.34500804 38 10.747-14 35 45.02         20.96wXEA059F51
     K24A01D  C2024 01 03.42847404 38 11.362-14 27 57.99         20.36GVEA059F52
     K24A01D  C2024 01 03.42911804 38 11.372-14 27 54.35         20.40GVEA059F52
     K24A01D KC2024 01 03.48492104 38 12.816-14 22 16.32         20.1 GVEA059474
     K24A01D KC2024 01 03.48670804 38 12.845-14 22 05.09         20.0 GVEA059474
     K24A01D KC2024 01 03.48849404 38 12.902-14 21 54.76         20.0 GVEA059474
     K24A01D |C2024 01 04.05018004 38 24.250-13 30 50.80         20.9 GVEA059807
     K24A01D |C2024 01 04.05376004 38 24.290-13 30 31.70         20.7 GVEA059807
     K24A01D |C2024 01 04.05735404 38 24.330-13 30 12.50         20.6 GVEA059807
     K24A01D |C2024 01 05.05742904 38 44.190-12 03 01.80         20.4 GVEA059807
     K24A01D |C2024 01 05.06228004 38 44.250-12 02 36.40         20.8 GVEA059807
     K24A01D |C2024 01 05.06698704 38 44.320-12 02 12.80         20.6 GVEA059807
     K24A01D KC2024 01 05.10417004 38 45.13 -11 59 31.1          21.0 GVEA059H21
     K24A01D KC2024 01 05.10703904 38 45.16 -11 59 16.8          20.9 GVEA059H21
     K24A01D KC2024 01 05.10990804 38 45.20 -11 59 02.3          21.0 GVEA059H21
     K24A01D  C2024 01 06.30684504 39 11.312-10 20 59.93         20.09GVEA059F52
     K24A01D  C2024 01 06.31851404 39 11.461-10 20 04.38         20.50GVEA059F52
Observer details:
474 Mount John Observatory, Lake Tekapo.  Observers A. C. Gilmore, P. M.
    Kilmartin.  Measurer P. M. Kilmartin.  1.0-m f/7.7 Reflector + CCD.
807 Cerro Tololo Observatory, La Serena.  Observers T. Linder, R. Holmes.
    0.61-m f/11 Ritchey-Chretien + CCD.
F51 Pan-STARRS 1, Haleakala.  Observers J. Herman, T. Lowe, P. Minguez, A.
    Schultz, I. Smith.  Measurers K. Chambers, T. de Boer, J. Fairlamb, H.
    Gao, M. Huber, C.-C. Lin, E. Magnier, Y. Ramanjooloo, R. Wainscoat, R.
    Weryk.  1.8-m Ritchey-Chretien + CCD.
F52 Pan-STARRS 2, Haleakala.  Observers J. Herman, T. Lowe, P. Minguez, A.
    Schultz, I. Smith.  Measurers K. Chambers, T. de Boer, J. Fairlamb, H.
    Gao, M. Huber, C.-C. Lin, E. Magnier, Y. Ramanjooloo, R. Wainscoat, R.
    Weryk.  1.8-m Ritchey-Chretien + CCD.
H21 Astronomical Research Observatory, Westfield.  Observer R. Holmes.
    Measurers T. Linder, R. Holmes, L. Horn.  0.81-m f/4.0 astrograph + CCD.
Orbital elements:
2024 AD1                                                 Earth MOID = 0.1980 AU
Epoch 2023 Sept. 13.0 TT = JDT 2460200.5                MPC                     
M 334.02508              (2000.0)            P               Q                  
n   0.63321656     Peri.  195.15661     +0.85992046     +0.48079067             
a   1.3430779      Node   134.77311     -0.43960326     +0.86824591             
e   0.6467458      Incl.   13.97146     -0.25939502     +0.12243105             
P   1.56           H   21.17          G   0.15           U   9                  
Residuals in seconds of arc
240103 F51  0.2+  0.0     240103 474  0.2+  1.3+    240105 H21  0.0   0.2+
240103 F51  0.2+  0.1-    240104 807  0.1-  0.5+    240105 H21  0.1-  0.0
240103 F51  0.2+  0.0     240104 807  0.1-  0.3+    240105 H21  0.0   0.0
240103 F52  0.0   0.1-    240104 807  0.0   0.3+    240106 F52  0.0   0.1-
240103 F52  0.1+  0.1-    240105 807  0.0   0.7-    240106 F52  0.0   0.1+
240103 474  0.5-  0.4-    240105 807  0.0   0.1+
240103 474  0.4-  0.9+    240105 807  0.3+  0.2-
Ephemeris:
2024 AD1                 a,e,i = 1.34, 0.65, 14                  q = 0.4744
Date    TT    R. A. (2000) Decl.     Delta      r    Elong.  Phase     V
2023 12 07    15 55 29.2 -85 28 17   0.2187  0.9076    63.1   104.5    21.5
...
2023 12 22    04 37 04.8 -42 22 23   0.2219  1.0852   111.6    57.4    20.2
...
2023 12 30    04 37 10.4 -22 15 54   0.2829  1.1737   126.4    42.4    20.4
...
2024 01 05    04 38 42.6 -12 08 06   0.3450  1.2371   130.9    36.9    20.8
2024 01 06    04 39 04.1 -10 45 21   0.3564  1.2474   131.2    36.4    20.9
2024 01 07    04 39 27.2 -09 27 00   0.3680  1.2576   131.5    35.9    21.0
...
2024 01 13    04 42 20.5 -02 54 07   0.4422  1.3175   131.2    34.2    21.4
...
2024 01 21    04 47 37.2 +03 20 53   0.5511  1.3936   128.2    33.7    22.0
...
2024 02 05    05 01 08.7 +10 45 29   0.7779  1.5248   119.2    34.4    23.0
A. U. Tomatic                (C) Copyright 2024 MPC           M.P.E.C. 2024-A59
    
    
More information about the Iaude
mailing list